SPMAZ LICR-LICG

Flight info

Callsign SPMAZ
Flight time 1h 9m
Altitude 23000
Route BERMI Q72 NOTRI DCT ALOKU DCT MABOX DCT SENTI DCT ABRUS
Aircraft P46T/L-SBDGRWY/SB1

Departure

Time 2026-05-07 14:50
Airport Reggio Calabria Airport (LICR)

Arrival

Time 2026-05-07 15:59
Airport Pantelleria Airport (LICG)
Time Latitude Longitude Altitude Speed Heading
2026-05-07 14:49 37.92659 15.56426 6718 ft 146 kts 206°
2026-05-07 14:50 37.91813 15.55724 7097 ft 145 kts 207°
2026-05-07 14:50 37.90982 15.55034 7493 ft 143 kts 208°
2026-05-07 14:50 37.90147 15.54339 7879 ft 143 kts 209°
2026-05-07 14:50 37.89290 15.53707 8246 ft 142 kts 200°
2026-05-07 14:51 37.88354 15.53326 8610 ft 142 kts 199°
2026-05-07 14:51 37.87414 15.52918 8977 ft 143 kts 200°
2026-05-07 14:51 37.86479 15.52517 9346 ft 143 kts 201°
2026-05-07 14:51 37.85524 15.52111 9712 ft 145 kts 202°
2026-05-07 14:52 37.84565 15.51702 10052 ft 145 kts 202°
2026-05-07 14:52 37.83613 15.51298 10373 ft 147 kts 202°
2026-05-07 14:52 37.82644 15.50886 10703 ft 147 kts 202°
2026-05-07 14:52 37.81666 15.50470 11017 ft 149 kts 203°
2026-05-07 14:53 37.80677 15.50050 11345 ft 150 kts 203°
2026-05-07 14:53 37.79682 15.49627 11672 ft 151 kts 204°
2026-05-07 14:53 37.78682 15.49202 11993 ft 152 kts 204°
2026-05-07 14:53 37.77685 15.48780 12306 ft 154 kts 204°
2026-05-07 14:54 37.76663 15.48346 12635 ft 155 kts 204°
2026-05-07 14:54 37.75631 15.47908 12962 ft 156 kts 204°
2026-05-07 14:54 37.74610 15.47474 13295 ft 157 kts 205°
2026-05-07 14:54 37.73568 15.47033 13622 ft 158 kts 205°
2026-05-07 14:55 37.72519 15.46588 13925 ft 159 kts 205°
2026-05-07 14:55 37.71486 15.46133 14203 ft 159 kts 208°
2026-05-07 14:55 37.70455 15.45601 14489 ft 160 kts 208°
2026-05-07 14:55 37.69437 15.45085 14781 ft 160 kts 208°
2026-05-07 14:56 37.68401 15.44561 15074 ft 161 kts 208°
2026-05-07 14:56 37.67360 15.44033 15363 ft 162 kts 208°
2026-05-07 14:56 37.66326 15.43509 15656 ft 162 kts 209°
2026-05-07 14:56 37.65275 15.42977 15950 ft 163 kts 209°
2026-05-07 14:57 37.64221 15.42443 16243 ft 164 kts 209°
2026-05-07 14:57 37.63160 15.41906 16530 ft 164 kts 209°
2026-05-07 14:57 37.62097 15.41367 16813 ft 165 kts 209°
2026-05-07 14:57 37.61025 15.40825 17113 ft 166 kts 210°
2026-05-07 14:58 37.59950 15.40281 17389 ft 167 kts 210°
2026-05-07 14:58 37.58869 15.39735 17673 ft 168 kts 210°
2026-05-07 14:58 37.57781 15.39185 17962 ft 168 kts 210°
2026-05-07 14:58 37.56692 15.38635 18245 ft 169 kts 210°
2026-05-07 14:59 37.55603 15.38084 18493 ft 169 kts 210°
2026-05-07 14:59 37.54510 15.37532 18732 ft 169 kts 211°
2026-05-07 14:59 37.53429 15.36986 18980 ft 170 kts 211°
2026-05-07 14:59 37.52362 15.36377 19223 ft 166 kts 219°
2026-05-07 15:00 37.51466 15.35498 19479 ft 162 kts 231°
2026-05-07 15:00 37.50767 15.34409 19728 ft 159 kts 242°
2026-05-07 15:00 37.50288 15.33168 19970 ft 157 kts 252°
2026-05-07 15:00 37.50039 15.31831 20221 ft 157 kts 261°
2026-05-07 15:01 37.49858 15.30467 20457 ft 158 kts 260°
2026-05-07 15:01 37.49670 15.29107 20699 ft 158 kts 260°
2026-05-07 15:01 37.49481 15.27742 20948 ft 158 kts 260°
2026-05-07 15:01 37.49289 15.26377 21193 ft 158 kts 260°
2026-05-07 15:02 37.49097 15.25014 21439 ft 158 kts 260°
2026-05-07 15:02 37.48906 15.23647 21685 ft 158 kts 260°
2026-05-07 15:02 37.48714 15.22280 21927 ft 159 kts 260°
2026-05-07 15:02 37.48522 15.20914 22171 ft 159 kts 260°
2026-05-07 15:03 37.48329 15.19543 22415 ft 159 kts 260°
2026-05-07 15:03 37.48136 15.18173 22664 ft 159 kts 260°
2026-05-07 15:03 37.47943 15.16799 22904 ft 160 kts 261°
2026-05-07 15:03 37.47743 15.15370 22915 ft 171 kts 261°
2026-05-07 15:04 37.47533 15.13865 22926 ft 178 kts 261°
2026-05-07 15:04 37.47313 15.12296 22924 ft 185 kts 261°
2026-05-07 15:04 37.47086 15.10679 22925 ft 189 kts 261°
2026-05-07 15:04 37.46854 15.09035 22922 ft 192 kts 261°
2026-05-07 15:05 37.46618 15.07364 22921 ft 195 kts 261°
2026-05-07 15:05 37.46402 15.05674 22924 ft 196 kts 264°
2026-05-07 15:05 37.46258 15.03955 22919 ft 198 kts 263°
2026-05-07 15:05 37.46102 15.02227 22923 ft 199 kts 263°
2026-05-07 15:06 37.45946 15.00515 22921 ft 200 kts 263°
2026-05-07 15:06 37.45787 14.98751 22925 ft 201 kts 264°
2026-05-07 15:06 37.45632 14.97026 22912 ft 201 kts 263°
2026-05-07 15:06 37.45444 14.95278 22917 ft 202 kts 262°
2026-05-07 15:07 37.45250 14.93506 22914 ft 202 kts 262°
2026-05-07 15:07 37.45062 14.91777 22913 ft 202 kts 262°
2026-05-07 15:07 37.44871 14.90024 22910 ft 202 kts 262°
2026-05-07 15:07 37.44680 14.88278 22910 ft 202 kts 262°
2026-05-07 15:08 37.44488 14.86532 22912 ft 201 kts 262°
2026-05-07 15:08 37.44296 14.84786 22910 ft 201 kts 262°
2026-05-07 15:08 37.44105 14.83041 22908 ft 201 kts 262°
2026-05-07 15:08 37.43913 14.81297 22905 ft 201 kts 262°
2026-05-07 15:09 37.43721 14.79557 22902 ft 201 kts 262°
2026-05-07 15:09 37.43529 14.77814 22899 ft 201 kts 262°
2026-05-07 15:09 37.43336 14.76069 22896 ft 201 kts 262°
2026-05-07 15:09 37.43143 14.74325 22894 ft 201 kts 262°
2026-05-07 15:10 37.42950 14.72582 22893 ft 201 kts 262°
2026-05-07 15:10 37.42756 14.70840 22890 ft 201 kts 262°
2026-05-07 15:10 37.42563 14.69096 22891 ft 201 kts 262°
2026-05-07 15:10 37.42368 14.67352 22886 ft 201 kts 262°
2026-05-07 15:11 37.42174 14.65609 22883 ft 201 kts 262°
2026-05-07 15:11 37.41980 14.63867 22887 ft 201 kts 262°
2026-05-07 15:11 37.41785 14.62124 22881 ft 201 kts 262°
2026-05-07 15:11 37.41590 14.60377 22878 ft 201 kts 262°
2026-05-07 15:12 37.41395 14.58635 22876 ft 201 kts 262°
2026-05-07 15:12 37.41199 14.56889 22876 ft 202 kts 262°
2026-05-07 15:12 37.41003 14.55142 22873 ft 201 kts 262°
2026-05-07 15:12 37.40806 14.53399 22872 ft 201 kts 262°
2026-05-07 15:13 37.40613 14.51678 22873 ft 201 kts 262°
2026-05-07 15:13 37.40416 14.49936 22870 ft 201 kts 262°
2026-05-07 15:13 37.40219 14.48194 22868 ft 201 kts 262°
2026-05-07 15:13 37.40023 14.46455 22866 ft 201 kts 262°
2026-05-07 15:14 37.39827 14.44721 22869 ft 200 kts 262°
2026-05-07 15:14 37.39630 14.42991 22866 ft 200 kts 262°
2026-05-07 15:14 37.39433 14.41258 22865 ft 200 kts 262°
2026-05-07 15:14 37.39236 14.39525 22869 ft 200 kts 262°
2026-05-07 15:15 37.39039 14.37791 22871 ft 200 kts 261°
2026-05-07 15:15 37.38840 14.36050 22870 ft 201 kts 261°
2026-05-07 15:15 37.38642 14.34310 22869 ft 201 kts 261°
2026-05-07 15:15 37.38443 14.32566 22867 ft 201 kts 261°
2026-05-07 15:16 37.38243 14.30826 22870 ft 201 kts 261°
2026-05-07 15:16 37.38044 14.29083 22871 ft 202 kts 261°
2026-05-07 15:16 37.37843 14.27337 22866 ft 202 kts 261°
2026-05-07 15:16 37.37643 14.25594 22868 ft 201 kts 261°
2026-05-07 15:17 37.37442 14.23850 22861 ft 201 kts 261°
2026-05-07 15:17 37.37241 14.22111 22865 ft 201 kts 261°
2026-05-07 15:17 37.37041 14.20376 22864 ft 201 kts 261°
2026-05-07 15:17 37.36841 14.18641 22865 ft 200 kts 261°
2026-05-07 15:18 37.36640 14.16905 22864 ft 200 kts 261°
2026-05-07 15:18 37.36439 14.15171 22862 ft 201 kts 261°
2026-05-07 15:18 37.36238 14.13435 22862 ft 201 kts 261°
2026-05-07 15:18 37.36037 14.11701 22862 ft 201 kts 261°
2026-05-07 15:19 37.35834 14.09967 22860 ft 201 kts 261°
2026-05-07 15:19 37.35635 14.08250 22863 ft 201 kts 261°
2026-05-07 15:19 37.35433 14.06520 22866 ft 199 kts 260°
2026-05-07 15:19 37.35232 14.04796 22864 ft 200 kts 261°
2026-05-07 15:20 37.35029 14.03068 22859 ft 200 kts 260°
2026-05-07 15:20 37.34827 14.01342 22860 ft 199 kts 261°
2026-05-07 15:20 37.34626 13.99618 22859 ft 200 kts 260°
2026-05-07 15:20 37.34423 13.97891 22861 ft 200 kts 260°
2026-05-07 15:21 37.34220 13.96161 22861 ft 200 kts 260°
2026-05-07 15:21 37.34016 13.94431 22858 ft 200 kts 260°
2026-05-07 15:21 37.33813 13.92704 22859 ft 200 kts 260°
2026-05-07 15:21 37.33609 13.90974 22861 ft 200 kts 260°
2026-05-07 15:22 37.33407 13.89271 22857 ft 200 kts 260°
2026-05-07 15:22 37.33203 13.87548 22860 ft 199 kts 260°
2026-05-07 15:22 37.32999 13.85820 22858 ft 199 kts 260°
2026-05-07 15:22 37.32795 13.84098 22861 ft 199 kts 260°
2026-05-07 15:23 37.32590 13.82370 22862 ft 199 kts 260°
2026-05-07 15:23 37.32384 13.80643 22861 ft 200 kts 260°
2026-05-07 15:23 37.32180 13.78931 22861 ft 200 kts 260°
2026-05-07 15:23 37.31974 13.77201 22854 ft 200 kts 260°
2026-05-07 15:24 37.31770 13.75492 22861 ft 200 kts 260°
2026-05-07 15:24 37.31562 13.73749 22858 ft 200 kts 259°
2026-05-07 15:24 37.31359 13.72048 22844 ft 199 kts 259°
2026-05-07 15:24 37.31152 13.70325 22860 ft 200 kts 259°
2026-05-07 15:25 37.30945 13.68600 22860 ft 199 kts 259°
2026-05-07 15:25 37.30739 13.66877 22853 ft 199 kts 259°
2026-05-07 15:25 37.30532 13.65156 22859 ft 199 kts 259°
2026-05-07 15:25 37.30324 13.63434 22856 ft 199 kts 259°
2026-05-07 15:26 37.30117 13.61715 22851 ft 200 kts 259°
2026-05-07 15:26 37.29911 13.60004 22857 ft 199 kts 259°
2026-05-07 15:26 37.29702 13.58281 22848 ft 200 kts 259°
2026-05-07 15:26 37.29428 13.56555 22847 ft 198 kts 253°
2026-05-07 15:27 37.28937 13.54941 22844 ft 198 kts 246°
2026-05-07 15:27 37.28371 13.53387 22854 ft 198 kts 247°
2026-05-07 15:27 37.27811 13.51808 22849 ft 198 kts 247°
2026-05-07 15:27 37.27252 13.50236 22849 ft 197 kts 247°
2026-05-07 15:28 37.26689 13.48662 22847 ft 197 kts 247°
2026-05-07 15:28 37.26127 13.47092 22850 ft 197 kts 247°
2026-05-07 15:28 37.25566 13.45523 22851 ft 197 kts 247°
2026-05-07 15:28 37.25006 13.43959 22843 ft 197 kts 247°
2026-05-07 15:29 37.24445 13.42394 22842 ft 196 kts 247°
2026-05-07 15:29 37.24075 13.41361 22846 ft 196 kts 247°
2026-05-07 15:29 37.23515 13.39799 22847 ft 196 kts 247°
2026-05-07 15:29 37.22955 13.38237 22845 ft 196 kts 246°
2026-05-07 15:30 37.22394 13.36675 22846 ft 196 kts 246°
2026-05-07 15:30 37.21836 13.35119 22843 ft 196 kts 246°
2026-05-07 15:30 37.21093 13.33051 22847 ft 196 kts 246°
2026-05-07 15:30 37.20715 13.31999 22838 ft 196 kts 246°
2026-05-07 15:31 37.20156 13.30445 22839 ft 196 kts 246°
2026-05-07 15:31 37.19596 13.28889 22838 ft 195 kts 246°
2026-05-07 15:31 37.19037 13.27336 22850 ft 195 kts 246°
2026-05-07 15:31 37.18486 13.25805 22840 ft 195 kts 246°
2026-05-07 15:32 37.17928 13.24258 22850 ft 195 kts 246°
2026-05-07 15:32 37.17443 13.22913 22837 ft 194 kts 246°
2026-05-07 15:32 37.16950 13.21546 22852 ft 194 kts 246°
2026-05-07 15:32 37.16497 13.19942 22858 ft 195 kts 254°
2026-05-07 15:33 37.16261 13.18284 22860 ft 197 kts 261°
2026-05-07 15:33 37.16234 13.16555 22858 ft 199 kts 266°
2026-05-07 15:33 37.16269 13.14815 22855 ft 199 kts 266°
2026-05-07 15:33 37.16293 13.13091 22856 ft 199 kts 266°
2026-05-07 15:34 37.16321 13.11356 22859 ft 199 kts 266°
2026-05-07 15:34 37.16352 13.09614 22854 ft 199 kts 266°
2026-05-07 15:34 37.16381 13.07876 22856 ft 199 kts 266°
2026-05-07 15:34 37.16410 13.06156 22853 ft 199 kts 266°
2026-05-07 15:35 37.16439 13.04413 22858 ft 199 kts 266°
2026-05-07 15:35 37.16467 13.02695 22854 ft 199 kts 266°
2026-05-07 15:35 37.16495 13.00958 22855 ft 199 kts 266°
2026-05-07 15:35 37.16524 12.99213 22859 ft 199 kts 266°
2026-05-07 15:36 37.16551 12.97492 22858 ft 199 kts 266°
2026-05-07 15:36 37.16579 12.95749 22855 ft 199 kts 266°
2026-05-07 15:36 37.16605 12.94088 22857 ft 199 kts 266°
2026-05-07 15:36 37.16632 12.92349 22855 ft 199 kts 266°
2026-05-07 15:37 37.16659 12.90633 22851 ft 198 kts 266°
2026-05-07 15:37 37.16685 12.88901 22852 ft 198 kts 266°
2026-05-07 15:37 37.16712 12.87166 22851 ft 198 kts 266°
2026-05-07 15:37 37.16737 12.85457 22850 ft 198 kts 266°
2026-05-07 15:38 37.16487 12.83803 22852 ft 191 kts 246°
2026-05-07 15:38 37.15880 12.82318 22853 ft 192 kts 243°
2026-05-07 15:38 37.15270 12.80847 22852 ft 192 kts 244°
2026-05-07 15:38 37.14673 12.79342 22853 ft 191 kts 244°
2026-05-07 15:39 37.14085 12.77853 22849 ft 191 kts 244°
2026-05-07 15:39 37.13499 12.76371 22843 ft 191 kts 244°
2026-05-07 15:39 37.12902 12.74868 22850 ft 191 kts 244°
2026-05-07 15:39 37.12314 12.73384 22849 ft 191 kts 244°
2026-05-07 15:40 37.11717 12.71882 22849 ft 191 kts 244°
2026-05-07 15:40 37.11129 12.70399 22850 ft 191 kts 244°
2026-05-07 15:40 37.10535 12.68904 22848 ft 191 kts 244°
2026-05-07 15:40 37.09946 12.67422 22669 ft 188 kts 244°
2026-05-07 15:41 37.09365 12.65954 22228 ft 191 kts 244°
2026-05-07 15:41 37.08775 12.64471 21858 ft 190 kts 244°
2026-05-07 15:41 37.08185 12.62991 21503 ft 189 kts 244°
2026-05-07 15:41 37.07607 12.61538 21169 ft 188 kts 244°
2026-05-07 15:42 37.07022 12.60070 20828 ft 188 kts 244°
2026-05-07 15:42 37.06439 12.58610 20503 ft 187 kts 245°
2026-05-07 15:42 37.05860 12.57156 20178 ft 185 kts 245°
2026-05-07 15:42 37.05286 12.55716 19741 ft 185 kts 245°
2026-05-07 15:43 37.04711 12.54276 19322 ft 184 kts 245°
2026-05-07 15:43 37.04139 12.52843 18888 ft 184 kts 245°
2026-05-07 15:43 37.03568 12.51413 18467 ft 183 kts 245°
2026-05-07 15:43 37.03004 12.50003 18044 ft 183 kts 245°
2026-05-07 15:44 37.02434 12.48578 17571 ft 183 kts 245°
2026-05-07 15:44 37.01864 12.47153 17120 ft 182 kts 245°
2026-05-07 15:44 37.01305 12.45755 16679 ft 182 kts 245°
2026-05-07 15:44 37.00737 12.44337 16245 ft 181 kts 245°
2026-05-07 15:45 37.00172 12.42928 15823 ft 181 kts 245°
2026-05-07 15:45 36.99614 12.41534 15416 ft 180 kts 245°
2026-05-07 15:45 36.99045 12.40115 15011 ft 180 kts 246°
2026-05-07 15:45 36.98487 12.38724 14629 ft 180 kts 246°
2026-05-07 15:46 36.97369 12.35940 13887 ft 179 kts 246°
2026-05-07 15:46 36.96809 12.34546 13503 ft 179 kts 246°
2026-05-07 15:46 36.96256 12.33171 13113 ft 178 kts 246°
2026-05-07 15:47 36.95702 12.31792 12702 ft 177 kts 246°
2026-05-07 15:47 36.95148 12.30414 12295 ft 176 kts 246°
2026-05-07 15:47 36.94599 12.29050 11904 ft 175 kts 246°
2026-05-07 15:47 36.94057 12.27703 11512 ft 175 kts 246°
2026-05-07 15:48 36.93511 12.26347 11150 ft 174 kts 247°
2026-05-07 15:48 36.92972 12.25010 10791 ft 173 kts 247°
2026-05-07 15:48 36.92431 12.23667 10435 ft 172 kts 247°
2026-05-07 15:48 36.91896 12.22340 10089 ft 171 kts 247°
2026-05-07 15:49 36.91359 12.21008 9746 ft 170 kts 247°
2026-05-07 15:49 36.90831 12.19699 9368 ft 170 kts 247°
2026-05-07 15:49 36.90296 12.18374 8976 ft 171 kts 246°
2026-05-07 15:49 36.89760 12.17048 8619 ft 171 kts 246°
2026-05-07 15:50 36.89223 12.15718 8247 ft 172 kts 246°
2026-05-07 15:50 36.88685 12.14386 7897 ft 172 kts 246°
2026-05-07 15:50 36.88143 12.13046 7546 ft 173 kts 246°
2026-05-07 15:50 36.87598 12.11699 7208 ft 173 kts 246°
2026-05-07 15:51 36.87059 12.10368 6865 ft 174 kts 246°
2026-05-07 15:51 36.86511 12.09015 6536 ft 175 kts 246°
2026-05-07 15:51 36.85958 12.07649 6211 ft 175 kts 246°
2026-05-07 15:51 36.85401 12.06275 5827 ft 179 kts 245°
2026-05-07 15:52 36.84857 12.04873 5474 ft 182 kts 249°
2026-05-07 15:52 36.84541 12.03337 5104 ft 187 kts 266°
2026-05-07 15:52 36.84652 12.01709 4751 ft 191 kts 283°
2026-05-07 15:52 36.85000 12.00109 4374 ft 195 kts 290°
2026-05-07 15:53 36.85377 11.98487 4162 ft 191 kts 282°
2026-05-07 15:53 36.85530 11.96831 3840 ft 194 kts 276°
2026-05-07 15:53 36.85536 11.95145 3534 ft 196 kts 268°
2026-05-07 15:53 36.85501 11.93441 3228 ft 197 kts 269°
2026-05-07 15:54 36.85396 11.91739 2918 ft 198 kts 264°
2026-05-07 15:54 36.85123 11.90075 2554 ft 192 kts 247°
2026-05-07 15:54 36.84768 11.88470 2289 ft 191 kts 260°
2026-05-07 15:54 36.84587 11.86882 2157 ft 183 kts 262°
2026-05-07 15:55 36.84410 11.85376 1963 ft 167 kts 254°
2026-05-07 15:55 36.83983 11.84107 1678 ft 152 kts 234°
2026-05-07 15:55 36.83217 11.83400 1574 ft 133 kts 188°
2026-05-07 15:55 36.82345 11.83550 1472 ft 126 kts 152°
2026-05-07 15:56 36.81687 11.84225 1438 ft 120 kts 130°
2026-05-07 15:56 36.81203 11.85095 1355 ft 122 kts 121°
2026-05-07 15:56 36.80761 11.85961 1346 ft 119 kts 122°
2026-05-07 15:56 36.80308 11.86846 1297 ft 119 kts 121°
2026-05-07 15:57 36.80043 11.87822 1241 ft 120 kts 96°
2026-05-07 15:57 36.80058 11.88854 1237 ft 119 kts 86°
2026-05-07 15:57 36.80250 11.89855 1226 ft 119 kts 73°
2026-05-07 15:57 36.80481 11.90848 1236 ft 114 kts 79°
2026-05-07 15:58 36.80645 11.91777 1243 ft 108 kts 80°
2026-05-07 15:58 36.80797 11.92616 1198 ft 94 kts 78°
2026-05-07 15:58 36.80958 11.93407 1102 ft 92 kts 78°
2026-05-07 15:58 36.81128 11.94185 961 ft 95 kts 76°
2026-05-07 15:59 36.81276 11.94981 801 ft 91 kts 79°
2026-05-07 15:59 36.81418 11.95706 687 ft 84 kts 76°
2026-05-07 15:59 36.81551 11.96378 642 ft 72 kts 77°
2026-05-07 15:59 36.81643 11.96872 638 ft 42 kts 76°
2026-05-07 16:00 36.81683 11.97095 644 ft 15 kts 87°
2026-05-07 16:00 36.81693 11.97142 646 ft 4 kts 341°
2026-05-07 16:00 36.81696 11.97085 643 ft 10 kts 282°
2026-05-07 16:00 36.81736 11.96980 634 ft 18 kts 300°
2026-05-07 16:01 36.81789 11.96850 634 ft 10 kts 298°
2026-05-07 16:01 36.81769 11.96827 630 ft 3 kts 181°
2026-05-07 16:01 36.81749 11.96820 628 ft 3 kts 199°
2026-05-07 16:01 36.81732 11.96809 629 ft 4 kts 230°
2026-05-07 16:02 36.81717 11.96767 629 ft 7 kts 259°
2026-05-07 16:02 36.81704 11.96701 629 ft 8 kts 252°
2026-05-07 16:02 36.81726 11.96679 630 ft 0 kts 345°